KISSLEGG Weather Reports


Display with metric or nautical units.
time (UTC)temp
F
wind
direction
speed
MPH
gust
MPH
rain 1hr
in
rain 24hr
in
rain mn
in
humidity
%
barometer
mb
20260507033211 45 360 0.0 0.0 0.00 0.00 0.00 93 1011.6
20260507030211 45 360 0.0 0.0 0.00 0.00 0.00 92 1011.6
20260507023211 46 360 0.0 0.0 0.00 0.00 0.00 93 1011.5
20260507020211 46 360 0.0 0.0 0.00 0.00 0.00 94 1011.4
20260507013212 45 360 0.0 0.0 0.00 0.00 0.00 95 1011.2
20260507010211 44 360 0.0 0.0 0.00 0.00 0.00 95 1011.2
20260507003209 44 360 0.0 0.0 0.00 0.00 0.00 94 1011.0
20260507000209 44 360 0.0 0.0 0.00 0.00 0.00 94 1011.0
20260506233209 45 244 0.0 0.0 0.00 0.00 0.00 94 1011.0
20260506230209 45 360 0.0 0.0 0.00 0.00 0.00 93 1010.8
20260506223209 46 360 0.0 0.0 0.00 0.00 0.00 93 1010.7
20260506220209 46 360 0.0 0.0 0.00 0.00 0.00 93 1010.6
20260506213209 47 360 0.0 0.0 0.00 0.00 0.06 92 1010.4
20260506210210 47 360 0.0 0.0 0.00 0.00 0.06 92 1010.3
20260506203210 47 360 0.0 0.0 0.00 0.00 0.06 92 1010.0
20260506200210 47 211 0.0 0.0 0.00 0.00 0.06 92 1009.9
20260506193215 47 193 0.0 0.0 0.00 0.00 0.06 92 1009.9
20260506190211 48 360 0.0 0.0 0.00 0.00 0.06 92 1009.2
20260506183209 48 211 0.0 0.0 0.00 0.00 0.06 91 1008.9
20260506180216 48 360 0.0 0.0 0.00 0.00 0.06 90 1008.6
20260506173210 49 360 0.0 0.0 0.00 0.00 0.06 90 1008.4
20260506170215 49 360 0.0 0.0 0.00 0.00 0.06 91 1008.1
20260506163210 49 360 0.0 0.0 0.00 0.00 0.06 91 1007.9
20260506160210 49 360 0.0 0.0 0.00 0.00 0.06 92 1008.1
20260506153210 49 360 0.0 0.0 0.00 0.00 0.06 93 1007.2
20260506150210 49 360 0.0 0.0 0.00 0.00 0.04 91 1006.7
20260506143210 53 360 0.0 0.0 0.00 0.00 0.02 82 1006.6
20260506140210 62 159 0.0 0.0 0.00 0.00 0.02 72 1005.2
20260506133211 60 209 0.0 0.0 0.00 0.00 0.02 84 1004.9
20260506130211 60 169 0.0 0.0 0.00 0.00 0.01 79 1005.7
20260506123210 61 161 0.0 0.0 0.00 0.00 0.00 65 1005.4
20260506120210 61 125 0.0 0.0 0.00 0.00 0.00 61 1005.0
20260506113217 60 117 0.0 0.0 0.00 0.00 0.00 64 1004.9
20260506110210 61 252 0.0 0.0 0.00 0.00 0.00 71 1005.3
20260506100213 58 69 0.0 0.0 0.00 0.00 0.00 72 1005.5
20260506093211 58 321 0.0 0.0 0.00 0.00 0.00 75 1005.5
20260506090211 58 279 0.0 0.0 0.00 0.00 0.00 77 1006.0
20260506083211 56 355 0.0 0.0 0.00 0.00 0.00 82 1005.9
20260506080212 54 351 0.0 0.0 0.00 0.00 0.00 86 1005.8
20260506073211 53 355 0.0 0.0 0.00 0.00 0.00 91 1006.0
20260506070212 52 40 0.0 0.0 0.00 0.00 0.00 91 1005.9
20260506060210 50 163 0.0 0.0 0.00 0.00 0.00 93 1006.1
20260506050211 48 163 0.0 0.0 0.00 0.00 0.00 94 1006.4
20260506043211 47 163 0.0 0.0 0.00 0.00 0.00 93 1006.5
20260506040211 47 163 0.0 0.0 0.00 0.00 0.00 93 1007.0